Overview Statistics Trail Chart Weather Telemetry Raw packets
 

This is the latest recevied weather packets stored in our database for station/object K0QED. If no packets are shown the sender has not sent any weather packets the latest 10 day(s).

<< 90 91 92 93 94 95 96 >>
Time Temp. Humidity Pressure Rain* Wind** Luminosity Snow
1787955390 26.67° C 33% 1026.7 hPa 0 mm - 32 W/m² -
1787955088 26.67° C 36% 1026.4 hPa 0 mm - 53 W/m² -
1787954785 27.22° C 35% 1026.5 hPa 0 mm - 67 W/m² -
1787954481 27.78° C 30% 1026.4 hPa 0 mm - 83 W/m² -
1787954180 28.33° C 30% 1026.4 hPa 0 mm - 98 W/m² -
1787953874 29.44° C 29% 1026.2 hPa 0 mm - 127 W/m² -
1787953568 30.56° C 27% 1026.4 hPa 0 mm - 167 W/m² -
1787953269 30.56° C 25% 1026.6 hPa 0 mm - 654 W/m² -
1787952966 30° C 25% 1026.5 hPa 0 mm - 664 W/m² -
1787952661 29.44° C 27% 1026.6 hPa 0 mm - 707 W/m² -
1787952360 29.44° C 26% 1027.1 hPa 0 mm - 337 W/m² -
1787952057 29.44° C 26% 1027.1 hPa 0 mm - 172 W/m² -
1787951756 29.44° C 24% 1027.1 hPa 0 mm - 292 W/m² -
1787951452 30° C 28% 1027.1 hPa 0 mm - 292 W/m² -
1787951148 30.56° C 27% 1027.5 hPa 0 mm - 262 W/m² -
1787950844 30.56° C 26% 1027.4 hPa 0 mm - 531 W/m² -
1787950538 30.56° C 27% 1027.4 hPa 0 mm - 230 W/m² -
1787950235 31.11° C 25% 1027.5 hPa 0 mm - 760 W/m² -
1787949939 30° C 26% 1027.5 hPa 0 mm - 734 W/m² -
1787949625 28.89° C 26% 1027.6 hPa 0 mm - 273 W/m² -
1787949320 28.89° C 27% 1027.9 hPa 0 mm - 143 W/m² -
1787949015 28.33° C 27% 1027.6 hPa 0 mm - 158 W/m² -
1787948710 28.33° C 29% 1027.5 hPa 0 mm - 177 W/m² -
1787948405 28.33° C 28% 1027.9 hPa 0 mm - 157 W/m² -
1787948100 28.33° C 29% 1027.6 hPa 0 mm - 138 W/m² -

* Rain latest hour (hover to see other rain measurements)
** Current wind speed in m/s (hover to see current wind gust speed)